| time (UTC) | temp F | wind direction | speed knots | gust knots | rain 1hr in | rain 24hr in | rain mn in | humidity % | barometer mb |
| 20260507155527 | 62 | 213 | 1.7 | 6.1 | 0.00 | 0.00 | 0.00 | 54 | 1017.5 |
| 20260507155022 | 62 | 214 | 3.5 | 6.1 | 0.00 | 0.00 | 0.00 | 54 | 1017.5 |
| 20260507154637 | 62 | 196 | 1.7 | 4.3 | 0.00 | 0.00 | 0.00 | 57 | 1017.4 |
| 20260507154023 | 62 | 181 | 1.7 | 6.1 | 0.00 | 0.00 | 0.00 | 56 | 1017.3 |
| 20260507153530 | 62 | 190 | 2.6 | 6.1 | 0.00 | 0.00 | 0.00 | 57 | 1017.5 |
| 20260507153140 | 61 | 162 | 0.9 | 4.3 | 0.00 | 0.00 | 0.00 | 58 | 1017.4 |
| 20260507152523 | 60 | 194 | 1.7 | 4.3 | 0.00 | 0.00 | 0.00 | 59 | 1017.4 |
| 20260507152040 | 60 | 211 | 1.7 | 4.3 | 0.00 | 0.00 | 0.00 | 59 | 1017.6 |
| 20260507151613 | 60 | 180 | 2.6 | 4.3 | 0.00 | 0.00 | 0.00 | 60 | 1017.4 |
| 20260507151020 | 59 | 219 | 1.7 | 4.3 | 0.00 | 0.00 | 0.00 | 60 | 1017.4 |
| 20260507150528 | 58 | 244 | 2.6 | 5.2 | 0.00 | 0.00 | 0.00 | 59 | 1017.3 |
| 20260507150132 | 58 | 223 | 2.6 | 5.2 | 0.00 | 0.00 | 0.00 | 61 | 1017.1 |
| 20260507145527 | 57 | 204 | 1.7 | 4.3 | 0.00 | 0.00 | 0.00 | 63 | 1017.3 |
| 20260507145040 | 57 | 275 | 2.6 | 5.2 | 0.00 | 0.00 | 0.00 | 63 | 1017.2 |
| 20260507144651 | 57 | 291 | 2.6 | 6.1 | 0.00 | 0.00 | 0.00 | 63 | 1017.3 |
| 20260507144035 | 56 | 281 | 3.5 | 7.0 | 0.00 | 0.00 | 0.00 | 61 | 1017.1 |
| 20260507143526 | 56 | 265 | 5.2 | 7.8 | 0.00 | 0.00 | 0.00 | 60 | 1017.1 |
| 20260507143144 | 56 | 262 | 5.2 | 7.8 | 0.00 | 0.00 | 0.00 | 60 | 1017.0 |
| 20260507142523 | 55 | 277 | 3.5 | 5.2 | 0.00 | 0.00 | 0.00 | 63 | 1017.2 |
| 20260507142038 | 55 | 261 | 2.6 | 5.2 | 0.00 | 0.00 | 0.00 | 66 | 1017.1 |
| 20260507141655 | 54 | 289 | 0.9 | 2.6 | 0.00 | 0.00 | 0.00 | 65 | 1017.1 |
| 20260507141023 | 54 | 278 | 0.9 | 3.5 | 0.00 | 0.00 | 0.00 | 64 | 1017.1 |
| 20260507140522 | 54 | 279 | 1.7 | 5.2 | 0.00 | 0.00 | 0.00 | 64 | 1017.0 |
| 20260507140148 | 53 | 284 | 3.5 | 5.2 | 0.00 | 0.00 | 0.00 | 63 | 1017.0 |
| 20260507135527 | 53 | 275 | 2.6 | 5.2 | 0.00 | 0.00 | 0.00 | 62 | 1016.8 |
| 20260507135038 | 53 | 265 | 0.9 | 5.2 | 0.00 | 0.00 | 0.00 | 63 | 1016.8 |
| 20260507134638 | 53 | 254 | 1.7 | 7.0 | 0.00 | 0.00 | 0.00 | 62 | 1016.7 |
| 20260507134035 | 54 | 277 | 4.3 | 8.7 | 0.00 | 0.00 | 0.00 | 61 | 1016.7 |
| 20260507133523 | 54 | 285 | 5.2 | 8.7 | 0.00 | 0.00 | 0.00 | 60 | 1016.7 |
| 20260507133136 | 54 | 262 | 6.1 | 8.7 | 0.00 | 0.00 | 0.00 | 60 | 1016.6 |
| 20260507132528 | 54 | 266 | 6.1 | 10.4 | 0.00 | 0.00 | 0.00 | 62 | 1016.7 |
| 20260507132028 | 54 | 269 | 7.0 | 11.3 | 0.00 | 0.00 | 0.00 | 60 | 1016.7 |
| 20260507131622 | 54 | 268 | 8.7 | 11.3 | 0.00 | 0.00 | 0.00 | 59 | 1016.5 |
| 20260507131019 | 54 | 275 | 7.8 | 11.3 | 0.00 | 0.00 | 0.00 | 60 | 1016.5 |
| 20260507130531 | 54 | 277 | 6.1 | 10.4 | 0.00 | 0.00 | 0.00 | 61 | 1016.5 |
| 20260507130111 | 54 | 267 | 7.0 | 10.4 | 0.00 | 0.00 | 0.00 | 62 | 1016.4 |
| 20260507125531 | 54 | 264 | 6.1 | 8.7 | 0.00 | 0.00 | 0.00 | 62 | 1016.2 |
| 20260507125023 | 54 | 256 | 6.1 | 9.6 | 0.00 | 0.00 | 0.00 | 62 | 1016.2 |
| 20260507124627 | 54 | 248 | 5.2 | 8.7 | 0.00 | 0.00 | 0.00 | 62 | 1016.2 |
| 20260507124040 | 54 | 263 | 5.2 | 9.6 | 0.00 | 0.00 | 0.00 | 62 | 1016.2 |
| 20260507123519 | 54 | 236 | 7.0 | 8.7 | 0.00 | 0.00 | 0.00 | 61 | 1016.2 |
| 20260507123119 | 54 | 226 | 6.1 | 7.8 | 0.00 | 0.00 | 0.00 | 61 | 1016.1 |
| 20260507122541 | 54 | 240 | 3.5 | 6.1 | 0.00 | 0.00 | 0.00 | 61 | 1016.1 |
| 20260507122021 | 55 | 262 | 3.5 | 8.7 | 0.00 | 0.00 | 0.00 | 59 | 1016.0 |
| 20260507121642 | 56 | 259 | 5.2 | 10.4 | 0.00 | 0.00 | 0.00 | 55 | 1016.0 |
| 20260507121029 | 56 | 265 | 7.0 | 10.4 | 0.00 | 0.00 | 0.00 | 55 | 1016.1 |
| 20260507120539 | 56 | 244 | 6.1 | 8.7 | 0.00 | 0.00 | 0.00 | 55 | 1016.1 |
| 20260507120215 | 56 | 220 | 6.1 | 9.6 | 0.00 | 0.00 | 0.00 | 55 | 1016.1 |
| 20260507115522 | 56 | 250 | 6.1 | 11.3 | 0.00 | 0.00 | 0.00 | 54 | 1016.1 |
| 20260507115022 | 57 | 257 | 9.6 | 13.9 | 0.00 | 0.00 | 0.00 | 54 | 1016.1 |
| 20260507114700 | 57 | 246 | 9.6 | 13.9 | 0.00 | 0.00 | 0.00 | 54 | 1016.0 |
| 20260507114035 | 57 | 245 | 9.6 | 13.9 | 0.00 | 0.00 | 0.00 | 55 | 1016.2 |
| 20260507113520 | 56 | 250 | 7.8 | 10.4 | 0.00 | 0.00 | 0.00 | 56 | 1016.0 |
| 20260507113151 | 56 | 244 | 6.1 | 10.4 | 0.00 | 0.00 | 0.00 | 57 | 1016.1 |
| 20260507112541 | 56 | 237 | 7.0 | 9.6 | 0.00 | 0.00 | 0.00 | 59 | 1016.1 |
| 20260507112033 | 56 | 223 | 4.3 | 9.6 | 0.00 | 0.00 | 0.00 | 59 | 1016.1 |
| 20260507111705 | 57 | 258 | 5.2 | 8.7 | 0.00 | 0.00 | 0.00 | 57 | 1016.0 |
| 20260507111027 | 57 | 242 | 7.0 | 12.2 | 0.00 | 0.00 | 0.00 | 57 | 1016.0 |
| 20260507110538 | 56 | 260 | 7.8 | 12.2 | 0.00 | 0.00 | 0.00 | 59 | 1015.8 |
| 20260507110159 | 56 | 238 | 6.1 | 10.4 | 0.00 | 0.00 | 0.00 | 61 | 1015.9 |
| 20260507105533 | 56 | 229 | 6.1 | 10.4 | 0.00 | 0.00 | 0.00 | 61 | 1016.0 |
| 20260507105037 | 55 | 273 | 7.0 | 11.3 | 0.00 | 0.00 | 0.00 | 62 | 1015.9 |
| 20260507104652 | 56 | 279 | 8.7 | 11.3 | 0.00 | 0.00 | 0.00 | 63 | 1015.9 |
| 20260507104040 | 56 | 286 | 7.8 | 9.6 | 0.00 | 0.00 | 0.00 | 63 | 1015.9 |
| 20260507103533 | 56 | 275 | 6.1 | 9.6 | 0.00 | 0.00 | 0.00 | 62 | 1015.9 |
| 20260507103159 | 56 | 278 | 7.0 | 13.0 | 0.00 | 0.00 | 0.00 | 63 | 1015.9 |
| 20260507102528 | 56 | 277 | 8.7 | 14.8 | 0.00 | 0.00 | 0.00 | 63 | 1015.9 |
| 20260507102026 | 56 | 279 | 8.7 | 17.4 | 0.00 | 0.00 | 0.00 | 63 | 1015.9 |
| 20260507101702 | 56 | 293 | 9.6 | 14.8 | 0.00 | 0.00 | 0.00 | 63 | 1015.8 |
| 20260507101028 | 56 | 273 | 7.0 | 10.4 | 0.00 | 0.00 | 0.00 | 63 | 1015.8 |
| 20260507100527 | 56 | 288 | 6.1 | 8.7 | 0.00 | 0.00 | 0.00 | 64 | 1015.7 |
| 20260507100138 | 56 | 277 | 3.5 | 9.6 | 0.00 | 0.00 | 0.00 | 62 | 1015.7 |
| 20260507095532 | 56 | 300 | 5.2 | 8.7 | 0.00 | 0.00 | 0.00 | 63 | 1015.7 |
| 20260507095023 | 56 | 284 | 6.1 | 10.4 | 0.00 | 0.00 | 0.00 | 63 | 1015.8 |
| 20260507094652 | 57 | 284 | 7.0 | 13.9 | 0.00 | 0.00 | 0.00 | 63 | 1015.7 |
| 20260507094042 | 57 | 296 | 10.4 | 16.5 | 0.00 | 0.00 | 0.00 | 62 | 1015.5 |
| 20260507093534 | 57 | 286 | 10.4 | 20.9 | 0.00 | 0.00 | 0.00 | 61 | 1015.4 |
| 20260507093149 | 58 | 269 | 12.2 | 22.6 | 0.00 | 0.00 | 0.00 | 59 | 1015.3 |
| 20260507092523 | 58 | 269 | 15.6 | 22.6 | 0.00 | 0.00 | 0.00 | 59 | 1015.3 |
| 20260507092026 | 58 | 269 | 14.8 | 20.9 | 0.00 | 0.00 | 0.00 | 61 | 1015.3 |
| 20260507091652 | 57 | 275 | 14.8 | 20.0 | 0.00 | 0.00 | 0.00 | 64 | 1015.5 |
| 20260507091045 | 56 | 279 | 9.6 | 13.0 | 0.00 | 0.00 | 0.00 | 65 | 1015.5 |
| 20260507090542 | 56 | 290 | 9.6 | 13.0 | 0.00 | 0.00 | 0.00 | 66 | 1015.6 |
| 20260507090209 | 56 | 294 | 10.4 | 13.0 | 0.00 | 0.00 | 0.00 | 65 | 1015.5 |
| 20260507085522 | 57 | 281 | 11.3 | 13.0 | 0.00 | 0.00 | 0.00 | 64 | 1015.5 |
| 20260507085035 | 57 | 280 | 8.7 | 10.4 | 0.00 | 0.00 | 0.00 | 63 | 1015.6 |
| 20260507084701 | 57 | 279 | 8.7 | 11.3 | 0.00 | 0.00 | 0.00 | 63 | 1015.7 |
| 20260507084022 | 58 | 299 | 8.7 | 13.0 | 0.00 | 0.00 | 0.00 | 61 | 1015.7 |
| 20260507083535 | 58 | 296 | 8.7 | 14.8 | 0.00 | 0.00 | 0.00 | 61 | 1015.6 |
| 20260507083144 | 58 | 285 | 9.6 | 17.4 | 0.00 | 0.00 | 0.00 | 60 | 1015.4 |
| 20260507082522 | 59 | 271 | 13.0 | 21.7 | 0.00 | 0.00 | 0.00 | 59 | 1015.0 |
| 20260507082022 | 59 | 285 | 13.9 | 22.6 | 0.00 | 0.00 | 0.00 | 59 | 1014.8 |
| 20260507081641 | 59 | 275 | 17.4 | 23.5 | 0.00 | 0.00 | 0.00 | 58 | 1014.8 |
| 20260507081019 | 59 | 277 | 13.9 | 20.0 | 0.00 | 0.00 | 0.00 | 58 | 1015.0 |
| 20260507080541 | 59 | 268 | 12.2 | 18.2 | 0.00 | 0.00 | 0.00 | 58 | 1015.0 |
| 20260507080159 | 59 | 278 | 13.9 | 18.2 | 0.00 | 0.00 | 0.00 | 59 | 1014.9 |
| 20260507075526 | 59 | 279 | 13.0 | 16.5 | 0.00 | 0.00 | 0.00 | 60 | 1015.3 |
| 20260507075035 | 58 | 280 | 8.7 | 14.8 | 0.00 | 0.00 | 0.00 | 60 | 1015.4 |
| 20260507074618 | 59 | 292 | 7.0 | 11.3 | 0.00 | 0.00 | 0.00 | 59 | 1015.4 |
| 20260507074022 | 59 | 311 | 4.3 | 7.8 | 0.00 | 0.00 | 0.00 | 58 | 1015.3 |
| 20260507073542 | 59 | 300 | 4.3 | 12.2 | 0.00 | 0.00 | 0.00 | 58 | 1015.4 |
| 20260507073142 | 59 | 273 | 7.8 | 13.0 | 0.00 | 0.00 | 0.00 | 56 | 1015.4 |
| 20260507072524 | 59 | 277 | 8.7 | 15.6 | 0.00 | 0.00 | 0.00 | 59 | 1015.3 |
| 20260507072030 | 59 | 281 | 9.6 | 15.6 | 0.00 | 0.00 | 0.00 | 59 | 1015.0 |
| 20260507071636 | 58 | 275 | 9.6 | 13.0 | 0.00 | 0.00 | 0.00 | 61 | 1015.0 |
| 20260507071043 | 58 | 283 | 9.6 | 13.0 | 0.00 | 0.00 | 0.00 | 60 | 1014.8 |
| 20260507070523 | 59 | 293 | 8.7 | 10.4 | 0.00 | 0.00 | 0.00 | 59 | 1015.2 |
| 20260507070147 | 60 | 309 | 7.0 | 8.7 | 0.00 | 0.00 | 0.00 | 58 | 1015.3 |
| 20260507065521 | 60 | 280 | 6.1 | 8.7 | 0.00 | 0.00 | 0.00 | 56 | 1015.2 |
| 20260507065022 | 60 | 250 | 6.1 | 8.7 | 0.00 | 0.00 | 0.00 | 56 | 1015.3 |
| 20260507064623 | 60 | 285 | 6.1 | 9.6 | 0.00 | 0.00 | 0.00 | 57 | 1015.4 |
| 20260507064044 | 60 | 295 | 6.1 | 9.6 | 0.00 | 0.00 | 0.00 | 57 | 1015.2 |
| 20260507063542 | 60 | 275 | 7.0 | 12.2 | 0.00 | 0.00 | 0.00 | 57 | 1015.0 |
| 20260507063118 | 60 | 278 | 7.8 | 13.0 | 0.00 | 0.00 | 0.00 | 57 | 1014.5 |
| 20260507062523 | 61 | 290 | 11.3 | 16.5 | 0.00 | 0.00 | 0.00 | 55 | 1014.6 |
| 20260507062027 | 61 | 267 | 12.2 | 16.5 | 0.00 | 0.00 | 0.00 | 56 | 1014.6 |
| 20260507061632 | 60 | 278 | 11.3 | 13.9 | 0.00 | 0.00 | 0.00 | 57 | 1014.6 |
| 20260507061038 | 61 | 272 | 7.8 | 13.9 | 0.00 | 0.00 | 0.00 | 56 | 1014.7 |
| 20260507060522 | 62 | 271 | 9.6 | 17.4 | 0.00 | 0.00 | 0.00 | 54 | 1014.7 |
| 20260507060136 | 62 | 306 | 12.2 | 17.4 | 0.00 | 0.00 | 0.00 | 53 | 1014.6 |
| 20260507055521 | 62 | 261 | 11.3 | 16.5 | 0.00 | 0.00 | 0.00 | 52 | 1014.7 |
| 20260507055024 | 63 | 294 | 11.3 | 16.5 | 0.00 | 0.00 | 0.00 | 52 | 1014.6 |
| 20260507054624 | 63 | 297 | 13.9 | 17.4 | 0.00 | 0.00 | 0.00 | 51 | 1014.5 |
| 20260507054041 | 64 | 294 | 13.0 | 20.9 | 0.00 | 0.00 | 0.00 | 49 | 1014.6 |
| 20260507053535 | 64 | 293 | 14.8 | 26.1 | 0.00 | 0.00 | 0.00 | 48 | 1014.4 |
| 20260507053121 | 65 | 288 | 14.8 | 26.1 | 0.00 | 0.00 | 0.00 | 47 | 1014.5 |
| 20260507052526 | 65 | 295 | 20.0 | 24.3 | 0.00 | 0.00 | 0.00 | 47 | 1014.3 |
| 20260507052028 | 64 | 288 | 14.8 | 19.1 | 0.00 | 0.00 | 0.00 | 48 | 1014.2 |
| 20260507051633 | 65 | 302 | 13.9 | 18.2 | 0.00 | 0.00 | 0.00 | 47 | 1014.3 |
| 20260507051041 | 65 | 287 | 6.1 | 11.3 | 0.00 | 0.00 | 0.00 | 48 | 1014.4 |
| 20260507050531 | 65 | 295 | 7.8 | 11.3 | 0.00 | 0.00 | 0.00 | 47 | 1014.3 |
| 20260507050128 | 65 | 302 | 5.2 | 13.0 | 0.00 | 0.00 | 0.00 | 47 | 1014.4 |
| 20260507045530 | 66 | 294 | 7.0 | 14.8 | 0.00 | 0.00 | 0.00 | 46 | 1014.4 |
| 20260507045020 | 66 | 257 | 10.4 | 14.8 | 0.00 | 0.00 | 0.00 | 45 | 1014.4 |
| 20260507044628 | 66 | 287 | 10.4 | 18.2 | 0.00 | 0.00 | 0.00 | 44 | 1014.4 |
| 20260507044030 | 67 | 313 | 13.0 | 18.2 | 0.00 | 0.00 | 0.00 | 44 | 1014.3 |
| 20260507043531 | 67 | 292 | 13.0 | 17.4 | 0.00 | 0.00 | 0.00 | 43 | 1014.2 |
| 20260507043126 | 67 | 260 | 12.2 | 17.4 | 0.00 | 0.00 | 0.00 | 43 | 1014.1 |
| 20260507042527 | 67 | 293 | 10.4 | 20.0 | 0.00 | 0.00 | 0.00 | 43 | 1014.0 |
| 20260507042034 | 68 | 249 | 10.4 | 20.0 | 0.00 | 0.00 | 0.00 | 40 | 1014.0 |
| 20260507041600 | 68 | 292 | 15.6 | 20.9 | 0.00 | 0.00 | 0.00 | 41 | 1013.6 |
| 20260507041035 | 67 | 297 | 16.5 | 20.9 | 0.00 | 0.00 | 0.00 | 41 | 1013.6 |
| 20260507040523 | 67 | 302 | 13.0 | 20.9 | 0.00 | 0.00 | 0.00 | 42 | 1013.6 |
| 20260507040140 | 68 | 302 | 14.8 | 19.1 | 0.00 | 0.00 | 0.00 | 42 | 1013.6 |
| 20260507035534 | 68 | 297 | 14.8 | 21.7 | 0.00 | 0.00 | 0.00 | 41 | 1013.6 |
| 20260507035040 | 68 | 279 | 17.4 | 21.7 | 0.00 | 0.00 | 0.00 | 41 | 1013.5 |
| 20260507034628 | 67 | 281 | 13.9 | 19.1 | 0.00 | 0.00 | 0.00 | 43 | 1013.5 |
| 20260507034023 | 67 | 289 | 13.0 | 18.2 | 0.00 | 0.00 | 0.00 | 43 | 1013.6 |
| 20260507033531 | 67 | 292 | 12.2 | 16.5 | 0.00 | 0.00 | 0.00 | 45 | 1013.7 |
| 20260507033054 | 67 | 294 | 10.4 | 13.0 | 0.00 | 0.00 | 0.00 | 45 | 1013.6 |
| 20260507032520 | 68 | 274 | 9.6 | 13.0 | 0.00 | 0.00 | 0.00 | 43 | 1013.6 |
| 20260507032028 | 68 | 290 | 7.0 | 10.4 | 0.00 | 0.00 | 0.00 | 44 | 1013.6 |
| 20260507031629 | 69 | 297 | 7.0 | 12.2 | 0.00 | 0.00 | 0.00 | 42 | 1013.5 |
| 20260507031043 | 69 | 277 | 7.8 | 13.0 | 0.00 | 0.00 | 0.00 | 41 | 1013.6 |
| 20260507030533 | 69 | 280 | 8.7 | 14.8 | 0.00 | 0.00 | 0.00 | 42 | 1013.4 |
| 20260507030126 | 69 | 282 | 11.3 | 16.5 | 0.00 | 0.00 | 0.00 | 40 | 1013.3 |
| 20260507025528 | 70 | 284 | 12.2 | 17.4 | 0.00 | 0.00 | 0.00 | 39 | 1013.2 |
| 20260507025023 | 70 | 279 | 13.9 | 17.4 | 0.00 | 0.00 | 0.00 | 38 | 1013.3 |
| 20260507024629 | 71 | 254 | 13.0 | 20.0 | 0.00 | 0.00 | 0.00 | 36 | 1013.3 |
| 20260507024018 | 72 | 288 | 15.6 | 20.0 | 0.00 | 0.00 | 0.00 | 33 | 1013.4 |
| 20260507023531 | 72 | 267 | 13.0 | 17.4 | 0.00 | 0.00 | 0.00 | 33 | 1013.4 |
| 20260507023121 | 72 | 279 | 12.2 | 15.6 | 0.00 | 0.00 | 0.00 | 33 | 1013.2 |
| 20260507022523 | 73 | 290 | 11.3 | 17.4 | 0.00 | 0.00 | 0.00 | 33 | 1013.1 |
| 20260507022044 | 73 | 288 | 13.0 | 19.1 | 0.00 | 0.00 | 0.00 | 32 | 1013.1 |
| 20260507021628 | 73 | 275 | 15.6 | 20.0 | 0.00 | 0.00 | 0.00 | 32 | 1013.0 |
| 20260507021042 | 73 | 276 | 15.6 | 22.6 | 0.00 | 0.00 | 0.00 | 32 | 1013.0 |
| 20260507020523 | 74 | 283 | 14.8 | 22.6 | 0.00 | 0.00 | 0.00 | 32 | 1012.9 |
| 20260507020138 | 74 | 284 | 18.2 | 22.6 | 0.00 | 0.00 | 0.00 | 31 | 1012.9 |
| 20260507015522 | 74 | 304 | 17.4 | 22.6 | 0.00 | 0.00 | 0.00 | 32 | 1013.0 |
| 20260507015047 | 75 | 285 | 11.3 | 20.0 | 0.00 | 0.00 | 0.00 | 32 | 1013.1 |
| 20260507014618 | 76 | 290 | 13.9 | 20.9 | 0.00 | 0.00 | 0.00 | 28 | 1012.9 |
| 20260507014039 | 77 | 299 | 16.5 | 23.5 | 0.00 | 0.00 | 0.00 | 27 | 1012.7 |
| 20260507013521 | 77 | 292 | 15.6 | 23.5 | 0.00 | 0.00 | 0.00 | 27 | 1012.7 |
| 20260507013101 | 78 | 311 | 15.6 | 22.6 | 0.00 | 0.00 | 0.00 | 28 | 1012.8 |
| 20260507012527 | 78 | 290 | 12.2 | 24.3 | 0.00 | 0.00 | 0.00 | 27 | 1012.7 |
| 20260507012039 | 78 | 319 | 16.5 | 24.3 | 0.00 | 0.00 | 0.00 | 26 | 1012.4 |
| 20260507011632 | 78 | 298 | 19.1 | 27.8 | 0.00 | 0.00 | 0.00 | 25 | 1012.7 |
| 20260507011022 | 78 | 302 | 20.0 | 27.8 | 0.00 | 0.00 | 0.00 | 24 | 1012.6 |
| 20260507010521 | 78 | 295 | 20.9 | 26.1 | 0.00 | 0.00 | 0.00 | 24 | 1012.5 |
| 20260507010128 | 79 | 311 | 15.6 | 26.1 | 0.00 | 0.00 | 0.00 | 24 | 1012.5 |
| 20260507005523 | 79 | 306 | 16.5 | 24.3 | 0.00 | 0.00 | 0.00 | 24 | 1012.6 |
| 20260507005039 | 79 | 298 | 18.2 | 26.9 | 0.00 | 0.00 | 0.00 | 23 | 1012.5 |
| 20260507004627 | 79 | 302 | 20.0 | 26.9 | 0.00 | 0.00 | 0.00 | 23 | 1012.5 |
| 20260507004021 | 80 | 301 | 18.2 | 26.1 | 0.00 | 0.00 | 0.00 | 24 | 1012.4 |
| 20260507003528 | 80 | 332 | 18.2 | 24.3 | 0.00 | 0.00 | 0.00 | 23 | 1012.5 |
| 20260507003131 | 80 | 309 | 16.5 | 20.9 | 0.00 | 0.00 | 0.00 | 23 | 1012.5 |
| 20260507002530 | 81 | 323 | 15.6 | 20.9 | 0.00 | 0.00 | 0.00 | 23 | 1012.5 |
| 20260507002021 | 81 | 317 | 13.9 | 20.9 | 0.00 | 0.00 | 0.00 | 24 | 1012.4 |
| 20260507001630 | 82 | 317 | 15.6 | 20.9 | 0.00 | 0.00 | 0.00 | 23 | 1012.3 |
| 20260507001021 | 83 | 308 | 7.8 | 13.9 | 0.00 | 0.00 | 0.00 | 23 | 1012.5 |
| 20260507000536 | 83 | 338 | 7.8 | 13.0 | 0.00 | 0.00 | 0.00 | 24 | 1012.4 |
| 20260507000135 | 84 | 300 | 9.6 | 14.8 | 0.00 | 0.00 | 0.00 | 23 | 1012.2 |
| 20260506235539 | 84 | 276 | 9.6 | 18.2 | 0.00 | 0.00 | 0.00 | 22 | 1012.4 |
| 20260506235043 | 84 | 279 | 13.0 | 18.2 | 0.00 | 0.00 | 0.00 | 22 | 1012.4 |
| 20260506234559 | 85 | 269 | 10.4 | 18.2 | 0.00 | 0.00 | 0.00 | 23 | 1012.4 |
| 20260506234037 | 85 | 285 | 12.2 | 18.2 | 0.00 | 0.00 | 0.00 | 26 | 1012.3 |
| 20260506233521 | 84 | 296 | 7.0 | 16.5 | 0.00 | 0.00 | 0.00 | 25 | 1012.2 |
| 20260506233129 | 83 | 277 | 7.8 | 13.0 | 0.00 | 0.00 | 0.00 | 31 | 1012.3 |
| 20260506232533 | 83 | 206 | 5.2 | 14.8 | 0.00 | 0.00 | 0.00 | 33 | 1012.3 |
| 20260506232027 | 82 | 200 | 6.1 | 14.8 | 0.00 | 0.00 | 0.00 | 34 | 1012.0 |
| 20260506231637 | 82 | 201 | 7.0 | 12.2 | 0.00 | 0.00 | 0.00 | 34 | 1012.1 |
| 20260506231020 | 82 | 202 | 2.6 | 10.4 | 0.00 | 0.00 | 0.00 | 32 | 1012.0 |
| 20260506230531 | 82 | 210 | 4.3 | 17.4 | 0.00 | 0.00 | 0.00 | 32 | 1012.0 |
| 20260506230131 | 83 | 223 | 9.6 | 16.5 | 0.00 | 0.00 | 0.00 | 31 | 1012.1 |
| 20260506225523 | 83 | 209 | 10.4 | 16.5 | 0.00 | 0.00 | 0.00 | 31 | 1012.0 |
| 20260506225023 | 84 | 211 | 8.7 | 15.6 | 0.00 | 0.00 | 0.00 | 33 | 1012.1 |
| 20260506224640 | 84 | 227 | 5.2 | 16.5 | 0.00 | 0.00 | 0.00 | 32 | 1012.1 |
| 20260506224020 | 84 | 211 | 6.1 | 16.5 | 0.00 | 0.00 | 0.00 | 33 | 1012.2 |
| 20260506223530 | 84 | 217 | 7.0 | 19.1 | 0.00 | 0.00 | 0.00 | 32 | 1012.2 |
| 20260506223108 | 84 | 215 | 9.6 | 19.1 | 0.00 | 0.00 | 0.00 | 32 | 1012.2 |
| 20260506222523 | 84 | 182 | 7.8 | 17.4 | 0.00 | 0.00 | 0.00 | 35 | 1012.3 |
| 20260506222034 | 83 | 181 | 7.8 | 17.4 | 0.00 | 0.00 | 0.00 | 36 | 1012.3 |
| 20260506221632 | 83 | 167 | 9.6 | 16.5 | 0.00 | 0.00 | 0.00 | 37 | 1012.4 |
| 20260506221029 | 83 | 175 | 9.6 | 16.5 | 0.00 | 0.00 | 0.00 | 37 | 1012.6 |
| 20260506220543 | 83 | 202 | 6.1 | 14.8 | 0.00 | 0.00 | 0.00 | 40 | 1012.6 |
| 20260506220131 | 82 | 175 | 7.8 | 14.8 | 0.00 | 0.00 | 0.00 | 37 | 1012.9 |
| 20260506215516 | 82 | 178 | 7.8 | 16.5 | 0.00 | 0.00 | 0.00 | 36 | 1012.8 |
| 20260506215038 | 82 | 193 | 8.7 | 16.5 | 0.00 | 0.00 | 0.00 | 35 | 1012.9 |
| 20260506214627 | 82 | 197 | 8.7 | 15.6 | 0.00 | 0.00 | 0.00 | 35 | 1012.9 |
| 20260506214032 | 83 | 215 | 5.2 | 14.8 | 0.00 | 0.00 | 0.00 | 36 | 1012.9 |
| 20260506213536 | 83 | 186 | 2.6 | 13.9 | 0.00 | 0.00 | 0.00 | 37 | 1013.0 |
| 20260506213134 | 82 | 114 | 7.8 | 14.8 | 0.00 | 0.00 | 0.00 | 37 | 1012.9 |
| 20260506212533 | 81 | 213 | 7.8 | 15.6 | 0.00 | 0.00 | 0.00 | 36 | 1013.0 |
| 20260506212022 | 80 | 212 | 8.7 | 15.6 | 0.00 | 0.00 | 0.00 | 37 | 1013.0 |
| 20260506211558 | 80 | 234 | 6.1 | 14.8 | 0.00 | 0.00 | 0.00 | 38 | 1013.1 |
| 20260506211035 | 80 | 210 | 8.7 | 14.8 | 0.00 | 0.00 | 0.00 | 37 | 1013.0 |
| 20260506210541 | 80 | 196 | 7.8 | 13.9 | 0.00 | 0.00 | 0.00 | 37 | 1013.2 |
| 20260506210120 | 81 | 202 | 7.8 | 17.4 | 0.00 | 0.00 | 0.00 | 38 | 1013.2 |
| 20260506205530 | 82 | 200 | 10.4 | 14.8 | 0.00 | 0.00 | 0.00 | 37 | 1013.2 |
| 20260506205022 | 83 | 168 | 8.7 | 13.0 | 0.00 | 0.00 | 0.00 | 39 | 1013.3 |
| 20260506204612 | 82 | 163 | 6.1 | 14.8 | 0.00 | 0.00 | 0.00 | 39 | 1013.3 |
| 20260506204027 | 82 | 184 | 8.7 | 14.8 | 0.00 | 0.00 | 0.00 | 40 | 1013.3 |
| 20260506203518 | 81 | 156 | 7.8 | 15.6 | 0.00 | 0.00 | 0.00 | 41 | 1013.3 |
| 20260506203144 | 81 | 183 | 7.8 | 15.6 | 0.00 | 0.00 | 0.00 | 39 | 1013.4 |
| 20260506202515 | 81 | 206 | 8.7 | 13.9 | 0.00 | 0.00 | 0.00 | 38 | 1013.5 |
| 20260506202039 | 81 | 198 | 7.0 | 13.9 | 0.00 | 0.00 | 0.00 | 41 | 1013.6 |
| 20260506201643 | 81 | 188 | 7.8 | 13.0 | 0.00 | 0.00 | 0.00 | 42 | 1013.5 |
| 20260506201028 | 81 | 194 | 5.2 | 15.6 | 0.00 | 0.00 | 0.00 | 42 | 1013.5 |
| 20260506200534 | 81 | 187 | 9.6 | 15.6 | 0.00 | 0.00 | 0.00 | 42 | 1013.7 |
| 20260506200149 | 80 | 159 | 6.1 | 13.9 | 0.00 | 0.00 | 0.00 | 41 | 1013.6 |
| 20260506195541 | 80 | 175 | 8.7 | 12.2 | 0.00 | 0.00 | 0.00 | 43 | 1013.7 |
| 20260506195022 | 80 | 168 | 8.7 | 12.2 | 0.00 | 0.00 | 0.00 | 43 | 1013.9 |
| 20260506194612 | 80 | 181 | 7.8 | 13.0 | 0.00 | 0.00 | 0.00 | 44 | 1014.1 |
| 20260506194035 | 80 | 155 | 7.8 | 14.8 | 0.00 | 0.00 | 0.00 | 43 | 1014.1 |
| 20260506193541 | 80 | 188 | 6.1 | 12.2 | 0.00 | 0.00 | 0.00 | 44 | 1014.2 |
| 20260506193151 | 80 | 161 | 6.1 | 12.2 | 0.00 | 0.00 | 0.00 | 44 | 1014.3 |
| 20260506192535 | 80 | 163 | 7.8 | 14.8 | 0.00 | 0.00 | 0.00 | 44 | 1014.2 |
| 20260506192038 | 79 | 161 | 7.0 | 11.3 | 0.00 | 0.00 | 0.00 | 44 | 1014.3 |
| 20260506191651 | 79 | 200 | 7.8 | 12.2 | 0.00 | 0.00 | 0.00 | 44 | 1014.3 |
| 20260506191029 | 79 | 189 | 8.7 | 11.3 | 0.00 | 0.00 | 0.00 | 43 | 1014.4 |
| 20260506190543 | 78 | 169 | 6.1 | 12.2 | 0.00 | 0.00 | 0.00 | 45 | 1014.3 |
| 20260506190147 | 78 | 172 | 7.8 | 13.0 | 0.00 | 0.00 | 0.00 | 45 | 1014.2 |
| 20260506185532 | 78 | 212 | 7.8 | 11.3 | 0.00 | 0.00 | 0.00 | 44 | 1014.4 |
| 20260506185030 | 78 | 194 | 6.1 | 9.6 | 0.00 | 0.00 | 0.00 | 45 | 1014.3 |
| 20260506184635 | 77 | 126 | 7.0 | 11.3 | 0.00 | 0.00 | 0.00 | 46 | 1014.4 |
| 20260506184026 | 77 | 177 | 7.0 | 12.2 | 0.00 | 0.00 | 0.00 | 44 | 1014.6 |
| 20260506183540 | 77 | 190 | 7.8 | 12.2 | 0.00 | 0.00 | 0.00 | 45 | 1014.6 |
| 20260506183148 | 77 | 181 | 7.0 | 13.0 | 0.00 | 0.00 | 0.00 | 47 | 1014.5 |
| 20260506182530 | 76 | 182 | 6.1 | 13.0 | 0.00 | 0.00 | 0.00 | 47 | 1014.6 |
| 20260506182027 | 76 | 182 | 7.8 | 13.0 | 0.00 | 0.00 | 0.00 | 47 | 1014.7 |
| 20260506181630 | 76 | 182 | 6.1 | 13.0 | 0.00 | 0.00 | 0.00 | 48 | 1014.7 |
| 20260506181030 | 75 | 183 | 7.0 | 13.0 | 0.00 | 0.00 | 0.00 | 49 | 1014.7 |
| 20260506180534 | 75 | 195 | 8.7 | 13.0 | 0.00 | 0.00 | 0.00 | 48 | 1014.7 |
| 20260506180155 | 75 | 180 | 7.0 | 13.0 | 0.00 | 0.00 | 0.00 | 49 | 1014.7 |
| 20260506175523 | 75 | 174 | 6.1 | 13.0 | 0.00 | 0.00 | 0.00 | 49 | 1014.7 |
| 20260506175022 | 75 | 169 | 7.0 | 13.0 | 0.00 | 0.00 | 0.00 | 50 | 1014.7 |
| 20260506174651 | 74 | 187 | 7.8 | 13.0 | 0.00 | 0.00 | 0.00 | 50 | 1014.8 |
| 20260506174022 | 74 | 217 | 6.1 | 10.4 | 0.00 | 0.00 | 0.00 | 51 | 1014.9 |
| 20260506173535 | 73 | 182 | 7.0 | 12.2 | 0.00 | 0.00 | 0.00 | 51 | 1014.9 |
| 20260506173152 | 73 | 167 | 7.0 | 12.2 | 0.00 | 0.00 | 0.00 | 51 | 1014.9 |
| 20260506172542 | 73 | 196 | 7.0 | 11.3 | 0.00 | 0.00 | 0.00 | 51 | 1014.9 |
| 20260506172030 | 73 | 180 | 5.2 | 13.0 | 0.00 | 0.00 | 0.00 | 54 | 1014.9 |
| 20260506171657 | 73 | 159 | 7.8 | 13.9 | 0.00 | 0.00 | 0.00 | 53 | 1014.9 |
| 20260506171026 | 73 | 218 | 7.0 | 13.0 | 0.00 | 0.00 | 0.00 | 52 | 1015.1 |
| 20260506170538 | 72 | 153 | 5.2 | 9.6 | 0.00 | 0.00 | 0.00 | 54 | 1015.1 |
| 20260506170155 | 72 | 155 | 6.1 | 9.6 | 0.00 | 0.00 | 0.00 | 54 | 1015.2 |
| 20260506165541 | 72 | 177 | 5.2 | 9.6 | 0.00 | 0.00 | 0.00 | 55 | 1015.2 |
| 20260506165036 | 71 | 185 | 5.2 | 10.4 | 0.00 | 0.00 | 0.00 | 55 | 1015.3 |
| 20260506164712 | 71 | 165 | 5.2 | 12.2 | 0.00 | 0.00 | 0.00 | 57 | 1015.4 |
| 20260506164021 | 71 | 186 | 6.1 | 10.4 | 0.00 | 0.00 | 0.00 | 56 | 1015.3 |
| 20260506163525 | 70 | 176 | 7.0 | 10.4 | 0.00 | 0.00 | 0.00 | 56 | 1015.4 |
| 20260506163207 | 70 | 148 | 6.1 | 12.2 | 0.00 | 0.00 | 0.00 | 58 | 1015.3 |
| 20260506162522 | 69 | 184 | 6.1 | 11.3 | 0.00 | 0.00 | 0.00 | 57 | 1015.3 |
| 20260506162022 | 69 | 184 | 5.2 | 10.4 | 0.00 | 0.00 | 0.00 | 59 | 1015.3 |
| 20260506161708 | 68 | 161 | 5.2 | 10.4 | 0.00 | 0.00 | 0.00 | 59 | 1015.4 |
| 20260506161037 | 68 | 181 | 6.1 | 9.6 | 0.00 | 0.00 | 0.00 | 59 | 1015.3 |
| 20260506160522 | 68 | 158 | 6.1 | 9.6 | 0.00 | 0.00 | 0.00 | 60 | 1015.3 |
| 20260506160204 | 68 | 188 | 3.5 | 8.7 | 0.00 | 0.00 | 0.00 | 61 | 1015.2 |